Вернуться в каталог

STARLINK-11537

АктивенСвязьVLEO
NORAD 62911·PAYLOAD·🇺🇸 United States

Запущен Feb 8, 2025 с Cape Canaveral Space Force Station

Loading…

Ближайшие Пролёты (ближайшие 24 часа)

TLE

СвежийSource: CelesTrak SupGP

Эпоха: Sep 15, 2026, 02:37 UTC

1 62911C 25027E   26258.10951389  .00067555  00000+0  52462-3 0  2581
2 62911  43.0002 285.9361 0001404 259.6583  62.4655 15.70809090    19

Отслеживайте STARLINK-11537 в реальном времени с AllMySat

Download on the App Store